Sarasota, FL

7:00 PM EDT on October 16, 2019 (GMT -0400)
Sarasota-bradenton

Weather History for KSRQ - September, 2019

Change the Weather History Date:

Monday, September 16, 2019

  Actual Average Record
Temperature  
Mean Temperature 85 °F 82 °F  
Max Temperature 91 °F 89 °F 95 °F (1958)
Min Temperature 78 °F 74 °F 64 °F (1976)
Degree Days  
Heating Degree Days 0 0  
Month to date heating degree days 0 0  
Since 1 July heating degree days 0 0  
Cooling Degree Days 20 17  
Month to date cooling degree days 345 272  
Year to date cooling degree days 3203 2569  
Growing Degree Days 35 (Base 50)    
Moisture  
Dew Point 75 °F    
Average Humidity 73    
Maximum Humidity 91    
Minimum Humidity 52    
Precipitation  
Precipitation 0.00 in 0.22 in 5.75 in (1959)
Month to date precipitation 0.83 4.54  
Year to date precipitation 42.22 42.87  
Sea Level Pressure  
Sea Level Pressure 29.95 in    
Wind  
Wind Speed 5 mph ()    
Max Wind Speed 17 mph    
Max Gust Speed 21 mph    
Visibility 10.0 miles    
Events      
T = Trace of Precipitation, MM = Missing Value Source: Averaged Metar Reports

Daily Weather History Graph

Daily Weather History Graph

Search for Another Location

Airport or City:

Astronomy

Sep. 16, 2019 Rise Set
Actual Time 7:15 AM EDT 7:33 PM EDT
Civil Twilight 6:52 AM EDT 7:57 PM EDT
Nautical Twilight 6:25 AM EDT 8:24 PM EDT
Astronomical Twilight 5:57 AM EDT 8:51 PM EDT
Moon 9:18 PM EDT 9:13 AM EDT
Length of Visible Light 13h 04m
Length of Day
12h 17m
Waning Gibbous, 94% of the Moon is Illuminated
Sep 16
Waning Gibbous
Sep 21
Last Quarter
Sep 28
New
Oct 5
First Quarter
Oct 13
Full

Hourly Weather History & Observations

Time (EDT) Temp. Heat Index Dew Point Humidity Pressure Visibility Wind Dir Wind Speed Gust Speed Precip Events Conditions
12:53 AM 81.0 °F 87.3 °F 75.9 °F 85% 29.93 in 10.0 mi North 3.5 mph - N/A   Clear
1:53 AM 81.0 °F 87.3 °F 75.9 °F 85% 29.93 in 10.0 mi North 4.6 mph - N/A   Clear
2:53 AM 81.0 °F 87.3 °F 75.9 °F 85% 29.94 in 10.0 mi NNE 4.6 mph - N/A   Clear
3:53 AM 80.1 °F 85.1 °F 75.0 °F 85% 29.92 in 10.0 mi NNE 3.5 mph - N/A   Clear
4:53 AM 79.0 °F - 75.0 °F 88% 29.93 in 10.0 mi North 4.6 mph - N/A   Clear
5:53 AM 79.0 °F - 75.0 °F 88% 29.93 in 10.0 mi Calm Calm - N/A   Clear
6:53 AM 79.0 °F - 75.0 °F 88% 29.96 in 10.0 mi Calm Calm - N/A   Clear
7:53 AM 80.1 °F 85.1 °F 75.0 °F 85% 29.98 in 10.0 mi NNE 4.6 mph - N/A   Clear
8:53 AM 84.0 °F 92.6 °F 75.9 °F 76% 29.99 in 10.0 mi North 5.8 mph - N/A   Clear
9:53 AM 87.1 °F 96.3 °F 75.0 °F 67% 29.99 in 10.0 mi NNE 6.9 mph - N/A   Clear
10:53 AM 88.0 °F 96.5 °F 73.9 °F 63% 29.99 in 10.0 mi Calm Calm - N/A   Partly Cloudy
11:53 AM 91.0 °F 98.2 °F 72.0 °F 53% 29.98 in 10.0 mi NW 5.8 mph - N/A   Partly Cloudy
12:53 PM 91.0 °F 102.9 °F 75.9 °F 61% 29.97 in 10.0 mi West 13.8 mph - N/A   Scattered Clouds
1:53 PM 91.0 °F 104.2 °F 77.0 °F 63% 29.96 in 10.0 mi WNW 11.5 mph - N/A   Partly Cloudy
2:53 PM 91.9 °F 105.9 °F 77.0 °F 62% 29.95 in 10.0 mi West 16.1 mph - N/A   Partly Cloudy
3:53 PM 91.9 °F 101.3 °F 73.9 °F 55% 29.93 in 10.0 mi WNW 13.8 mph 19.6 mph N/A   Clear
4:53 PM 91.0 °F 101.6 °F 75.0 °F 59% 29.91 in 10.0 mi NW 15.0 mph - N/A   Clear
5:53 PM 89.1 °F 96.0 °F 72.0 °F 57% 29.91 in 10.0 mi NW 15.0 mph - N/A   Clear
6:53 PM 87.1 °F 95.4 °F 73.9 °F 65% 29.91 in 10.0 mi NW 13.8 mph - N/A   Clear
7:53 PM 84.9 °F 92.1 °F 73.9 °F 69% 29.92 in 10.0 mi NNW 8.1 mph - N/A   Clear
8:53 PM 84.0 °F 91.9 °F 75.0 °F 74% 29.93 in 10.0 mi NW 8.1 mph - N/A   Clear
9:53 PM 82.9 °F 90.2 °F 75.0 °F 77% 29.94 in 10.0 mi NNW 5.8 mph - N/A   Clear
10:53 PM 82.9 °F 90.2 °F 75.0 °F 77% 29.95 in 10.0 mi NNW 4.6 mph - N/A   Clear
11:53 PM 82.0 °F 88.6 °F 75.0 °F 79% 29.94 in 10.0 mi North 4.6 mph - N/A   Clear